This is the latest recevied weather packets stored in our database for station/object N7IGG. If no packets are shown the sender has not sent any weather packets the latest 10 day(s).
| Time | Temp. | Humidity | Pressure | Rain* | Wind** | Luminosity | Snow |
|---|---|---|---|---|---|---|---|
| 1777341829 | 12.78° C | 76% | 1019.6 hPa | 0 mm | - | 48 W/m² | - |
| 1777341525 | 13.33° C | 74% | 1019.5 hPa | 0 mm | - | 40 W/m² | - |
| 1777341222 | 13.33° C | 75% | 1019.6 hPa | 0 mm | - | 35 W/m² | - |
| 1777340919 | 13.33° C | 74% | 1019.5 hPa | 0 mm | - | 93 W/m² | - |
| 1777340617 | 13.33° C | 75% | 1019.5 hPa | 0 mm | - | 81 W/m² | - |
| 1777340314 | 13.33° C | 76% | 1019.5 hPa | 0 mm | - | 48 W/m² | - |
| 1777340010 | 13.33° C | 76% | 1019.5 hPa | 0 mm | - | 44 W/m² | - |
| 1777339708 | 13.33° C | 76% | 1019.4 hPa | 0 mm | - | 43 W/m² | - |
| 1777339406 | 13.33° C | 76% | 1019.4 hPa | 0 mm | - | 45 W/m² | - |
| 1777339103 | 13.33° C | 76% | 1019.4 hPa | 0 mm | - | 50 W/m² | - |
| 1777338801 | 13.33° C | 76% | 1019.1 hPa | 0 mm | - | 59 W/m² | - |
| 1777338498 | 13.89° C | 76% | 1019.3 hPa | 0 mm | - | 64 W/m² | - |
| 1777338195 | 13.33° C | 76% | 1019.1 hPa | 0 mm | - | 71 W/m² | - |
| 1777337890 | 13.33° C | 76% | 1019 hPa | 0 mm | - | 86 W/m² | - |
| 1777337588 | 13.89° C | 76% | 1019.1 hPa | 0 mm | - | 75 W/m² | - |
| 1777337285 | 13.89° C | 76% | 1019 hPa | 0 mm | - | 108 W/m² | - |
| 1777336983 | 13.89° C | 76% | 1018.9 hPa | 0 mm | - | 144 W/m² | - |
| 1777336681 | 13.33° C | 77% | 1019 hPa | 0 mm | - | 105 W/m² | - |
| 1777336379 | 13.33° C | 78% | 1019.3 hPa | 0 mm | - | 88 W/m² | - |
| 1777336076 | 12.78° C | 78% | 1019.3 hPa | 0 mm | - | 75 W/m² | - |
| 1777335773 | 13.33° C | 79% | 1018.9 hPa | 0 mm | - | 70 W/m² | - |
| 1777335470 | 13.33° C | 79% | 1019.1 hPa | 0 mm | - | 87 W/m² | - |
| 1777335166 | 13.33° C | 78% | 1019 hPa | 0 mm | - | 127 W/m² | - |
| 1777334865 | 13.89° C | 78% | 1018.9 hPa | 0 mm | - | 146 W/m² | - |
| 1777334562 | 13.33° C | 79% | 1018.9 hPa | 0 mm | - | 160 W/m² | - |
* Rain latest hour (hover to see other rain measurements)
** Current wind speed in m/s (hover to see current wind gust speed)